| time (UTC) | temp C | wind direction | speed KPH | gust KPH | rain 1hr cm | rain 24hr cm | rain mn cm | humidity % | barometer mb |
| 20260901025308 | 18 | 47 | 1.6 | 3.2 | 0.00 | 1.12 | 1.12 | 99 | 1016.3 |
| 20260901024803 | 18 | 32 | 0.0 | 3.2 | 0.05 | 1.12 | 1.12 | 99 | 1016.5 |
| 20260901024302 | 18 | 113 | 0.0 | 0.0 | 0.05 | 1.12 | 1.12 | 99 | 1016.4 |
| 20260901023800 | 18 | 85 | 1.6 | 1.6 | 0.00 | 1.09 | 1.09 | 99 | 1016.4 |
| 20260901023256 | 18 | 89 | 0.0 | 0.0 | 0.00 | 1.09 | 1.09 | 99 | 1016.7 |
| 20260901022751 | 18 | 10 | 1.6 | 3.2 | 0.00 | 1.09 | 1.09 | 99 | 1016.6 |
| 20260901022247 | 18 | 14 | 0.0 | 3.2 | 0.00 | 1.09 | 1.09 | 99 | 1016.7 |
| 20260901021741 | 18 | 345 | 0.0 | 1.6 | 0.00 | 1.09 | 1.09 | 99 | 1016.3 |
| 20260901021237 | 18 | 22 | 0.0 | 3.2 | 0.00 | 1.09 | 1.09 | 99 | 1016.5 |
| 20260901020732 | 18 | 83 | 3.2 | 3.2 | 0.00 | 1.09 | 1.09 | 99 | 1016.6 |
| 20260901020229 | 18 | 24 | 1.6 | 3.2 | 0.00 | 1.09 | 1.09 | 99 | 1016.6 |
| 20260901015728 | 18 | 29 | 1.6 | 3.2 | 0.00 | 1.09 | 1.09 | 99 | 1016.5 |
| 20260901015225 | 18 | 49 | 0.0 | 1.6 | 0.00 | 1.09 | 1.09 | 99 | 1016.7 |
| 20260901014724 | 18 | 60 | 0.0 | 1.6 | 0.00 | 1.09 | 1.09 | 99 | 1016.7 |
| 20260901014220 | 18 | 12 | 3.2 | 3.2 | 0.00 | 1.09 | 1.09 | 99 | 1016.6 |
| 20260901013715 | 18 | 23 | 1.6 | 1.6 | 0.00 | 1.09 | 1.09 | 99 | 1016.7 |
| 20260901013211 | 18 | 326 | 0.0 | 0.0 | 0.00 | 1.09 | 1.09 | 99 | 1016.7 |
| 20260901012706 | 18 | 24 | 0.0 | 1.6 | 0.00 | 1.09 | 1.09 | 99 | 1016.8 |
| 20260901012206 | 18 | 311 | 1.6 | 1.6 | 0.00 | 1.09 | 1.09 | 99 | 1017.0 |
| 20260901011702 | 19 | 316 | 1.6 | 1.6 | 0.00 | 1.09 | 1.09 | 99 | 1017.0 |
| 20260901011201 | 19 | 296 | 0.0 | 0.0 | 0.00 | 1.09 | 1.09 | 99 | 1016.7 |
| 20260901010656 | 19 | 89 | 0.0 | 0.0 | 0.00 | 1.09 | 1.09 | 99 | 1016.5 |
| 20260901010151 | 19 | 89 | 0.0 | 0.0 | 0.00 | 1.09 | 1.09 | 99 | 1016.7 |
| 20260901005649 | 19 | 89 | 0.0 | 0.0 | 0.05 | 1.09 | 1.09 | 99 | 1016.6 |
| 20260901005145 | 19 | 177 | 0.0 | 1.6 | 0.13 | 1.09 | 1.09 | 99 | 1016.7 |
| 20260901004644 | 19 | 269 | 0.0 | 3.2 | 0.13 | 1.09 | 1.09 | 99 | 1016.7 |
| 20260901004139 | 19 | 318 | 1.6 | 3.2 | 0.05 | 1.07 | 1.07 | 99 | 1016.6 |
| 20260901003634 | 19 | 298 | 3.2 | 3.2 | 0.05 | 1.07 | 1.07 | 99 | 1016.6 |
| 20260901003133 | 19 | 322 | 0.0 | 0.0 | 0.05 | 1.07 | 1.07 | 99 | 1016.5 |
| 20260901002633 | 18 | 22 | 0.0 | 0.0 | 0.05 | 1.07 | 1.07 | 99 | 1016.3 |
| 20260901002128 | 19 | 23 | 3.2 | 3.2 | 0.05 | 1.04 | 1.04 | 99 | 1016.3 |
| 20260901001623 | 19 | 302 | 0.0 | 0.0 | 0.05 | 1.04 | 1.04 | 99 | 1016.2 |
| 20260901001118 | 19 | 319 | 0.0 | 0.0 | 0.05 | 1.04 | 1.04 | 99 | 1016.3 |
| 20260901000613 | 19 | 119 | 0.0 | 0.0 | 0.05 | 1.04 | 1.04 | 99 | 1016.5 |
| 20260901000104 | 19 | 93 | 1.6 | 3.2 | 0.05 | 1.04 | 1.04 | 99 | 1016.5 |
| 20260831235557 | 19 | 315 | 0.0 | 3.2 | 0.13 | 1.04 | 1.04 | 99 | 1016.3 |
| 20260831235053 | 19 | 315 | 0.0 | 0.0 | 0.05 | 1.02 | 1.02 | 99 | 1016.3 |
| 20260831234552 | 19 | 269 | 1.6 | 3.2 | 0.00 | 1.02 | 1.02 | 99 | 1016.6 |
| 20260831234048 | 19 | 352 | 1.6 | 3.2 | 0.00 | 1.02 | 1.02 | 99 | 1016.4 |
| 20260831233542 | 19 | 320 | 3.2 | 3.2 | 0.00 | 1.02 | 1.02 | 99 | 1016.5 |
| 20260831233038 | 19 | 268 | 3.2 | 3.2 | 0.00 | 1.02 | 1.02 | 99 | 1016.7 |
| 20260831232533 | 19 | 286 | 0.0 | 3.2 | 0.00 | 1.02 | 1.02 | 99 | 1016.5 |
| 20260831232029 | 19 | 299 | 0.0 | 0.0 | 0.00 | 1.02 | 1.02 | 99 | 1016.5 |
| 20260831231526 | 19 | 269 | 0.0 | 3.2 | 0.00 | 1.02 | 1.02 | 99 | 1016.6 |
| 20260831231021 | 19 | 124 | 0.0 | 1.6 | 0.00 | 1.02 | 1.02 | 99 | 1016.8 |
| 20260831230517 | 19 | 315 | 0.0 | 1.6 | 0.05 | 1.02 | 1.02 | 99 | 1016.8 |
| 20260831230016 | 19 | 233 | 0.0 | 0.0 | 0.05 | 1.02 | 1.02 | 99 | 1016.7 |
| 20260831225512 | 19 | 234 | 0.0 | 1.6 | 0.00 | 0.99 | 0.99 | 99 | 1016.8 |
| 20260831225012 | 19 | 55 | 0.0 | 1.6 | 0.00 | 0.99 | 0.99 | 99 | 1016.9 |
| 20260831224507 | 19 | 49 | 0.0 | 0.0 | 0.00 | 0.99 | 0.99 | 99 | 1016.9 |
| 20260831224001 | 19 | 20 | 1.6 | 1.6 | 0.00 | 0.99 | 0.99 | 99 | 1017.0 |
| 20260831223457 | 19 | 304 | 0.0 | 0.0 | 0.00 | 0.99 | 0.99 | 99 | 1017.0 |
| 20260831222953 | 19 | 145 | 0.0 | 1.6 | 0.05 | 0.99 | 0.99 | 99 | 1017.2 |
| 20260831222449 | 19 | 110 | 0.0 | 3.2 | 0.13 | 0.99 | 0.99 | 99 | 1017.2 |
| 20260831221943 | 19 | 32 | 0.0 | 1.6 | 0.13 | 0.99 | 0.99 | 99 | 1017.5 |
| 20260831221439 | 19 | 55 | 1.6 | 3.2 | 0.13 | 0.99 | 0.99 | 99 | 1017.4 |
| 20260831220934 | 19 | 76 | 0.0 | 0.0 | 0.18 | 0.97 | 0.97 | 99 | 1017.3 |
| 20260831220430 | 19 | 222 | 0.0 | 1.6 | 0.18 | 0.97 | 0.97 | 99 | 1017.4 |
| 20260831215925 | 19 | 322 | 0.0 | 1.6 | 0.13 | 0.94 | 0.94 | 99 | 1017.5 |
| 20260831215421 | 19 | 89 | 0.0 | 0.0 | 0.18 | 0.94 | 0.94 | 99 | 1017.6 |
| 20260831214917 | 19 | 119 | 0.0 | 3.2 | 0.05 | 0.91 | 0.91 | 99 | 1017.5 |
| 20260831214414 | 19 | 0 | 0.0 | 3.2 | 0.00 | 0.89 | 0.89 | 99 | 1017.7 |
| 20260831213915 | 19 | 131 | 0.0 | 1.6 | 0.05 | 0.89 | 0.89 | 99 | 1017.5 |
| 20260831213411 | 19 | 66 | 0.0 | 1.6 | 0.05 | 0.89 | 0.89 | 99 | 1017.4 |
| 20260831212911 | 19 | 103 | 0.0 | 0.0 | 0.00 | 0.89 | 0.89 | 99 | 1017.5 |
| 20260831212408 | 19 | 22 | 0.0 | 1.6 | 0.00 | 0.89 | 0.89 | 99 | 1017.5 |
| 20260831211907 | 19 | 48 | 0.0 | 1.6 | 0.05 | 0.89 | 0.89 | 99 | 1017.5 |
| 20260831211402 | 19 | 66 | 0.0 | 1.6 | 0.05 | 0.89 | 0.89 | 99 | 1017.7 |
| 20260831210901 | 19 | 60 | 0.0 | 3.2 | 0.00 | 0.89 | 0.89 | 99 | 1017.5 |
| 20260831210357 | 19 | 38 | 0.0 | 1.6 | 0.00 | 0.89 | 0.89 | 99 | 1017.5 |
| 20260831205852 | 19 | 89 | 0.0 | 0.0 | 0.00 | 0.89 | 0.89 | 99 | 1017.2 |
| 20260831205348 | 19 | 117 | 0.0 | 3.2 | 0.00 | 0.89 | 0.89 | 99 | 1017.6 |
| 20260831204843 | 19 | 44 | 0.0 | 3.2 | 0.00 | 0.89 | 0.89 | 99 | 1017.5 |
| 20260831204342 | 19 | 40 | 0.0 | 1.6 | 0.00 | 0.89 | 0.89 | 99 | 1017.6 |
| 20260831203841 | 19 | 23 | 0.0 | 3.2 | 0.00 | 0.89 | 0.89 | 99 | 1017.5 |
| 20260831203336 | 19 | 94 | 1.6 | 3.2 | 0.00 | 0.89 | 0.89 | 99 | 1017.7 |
| 20260831202834 | 19 | 19 | 0.0 | 0.0 | 0.00 | 0.89 | 0.89 | 99 | 1017.7 |
| 20260831202324 | 19 | 54 | 1.6 | 3.2 | 0.00 | 0.89 | 0.89 | 99 | 1017.6 |
| 20260831201818 | 19 | 34 | 0.0 | 3.2 | 0.00 | 0.89 | 0.89 | 99 | 1017.6 |
| 20260831201316 | 18 | 105 | 3.2 | 3.2 | 0.00 | 0.89 | 0.89 | 99 | 1017.6 |
| 20260831200813 | 19 | 3 | 1.6 | 3.2 | 0.00 | 0.89 | 0.89 | 99 | 1017.8 |
| 20260831200307 | 19 | 37 | 0.0 | 0.0 | 0.05 | 0.89 | 0.89 | 99 | 1017.8 |
| 20260831195802 | 18 | 36 | 0.0 | 1.6 | 0.23 | 0.89 | 0.89 | 99 | 1018.0 |
| 20260831195258 | 18 | 19 | 1.6 | 1.6 | 0.48 | 0.86 | 0.86 | 99 | 1017.6 |
| 20260831194753 | 18 | 31 | 1.6 | 3.2 | 0.36 | 0.84 | 0.84 | 99 | 1017.8 |
| 20260831194249 | 18 | 0 | 1.6 | 3.2 | 0.23 | 0.79 | 0.79 | 99 | 1017.9 |
| 20260831193742 | 18 | 31 | 0.0 | 3.2 | 0.18 | 0.76 | 0.76 | 99 | 1017.8 |
| 20260831193238 | 18 | 100 | 1.6 | 3.2 | 0.05 | 0.74 | 0.74 | 99 | 1017.8 |
| 20260831192733 | 18 | 249 | 0.0 | 3.2 | 0.05 | 0.74 | 0.74 | 99 | 1017.8 |
| 20260831192228 | 18 | 97 | 3.2 | 3.2 | 0.05 | 0.74 | 0.74 | 99 | 1017.8 |
| 20260831191724 | 18 | 114 | 4.8 | 4.8 | 0.00 | 0.74 | 0.74 | 99 | 1018.0 |
| 20260831191220 | 18 | 0 | 0.0 | 1.6 | 0.00 | 0.74 | 0.74 | 99 | 1018.2 |
| 20260831190715 | 18 | 23 | 0.0 | 0.0 | 0.00 | 0.74 | 0.74 | 99 | 1018.3 |
| 20260831190214 | 18 | 212 | 0.0 | 1.6 | 0.00 | 0.74 | 0.74 | 99 | 1018.4 |
| 20260831185709 | 18 | 116 | 0.0 | 3.2 | 0.00 | 0.74 | 0.74 | 99 | 1018.2 |
| 20260831185205 | 18 | 359 | 3.2 | 4.8 | 0.00 | 0.74 | 0.74 | 99 | 1018.2 |
| 20260831184704 | 18 | 124 | 0.0 | 3.2 | 0.00 | 0.74 | 0.74 | 99 | 1018.4 |
| 20260831184200 | 18 | 308 | 3.2 | 4.8 | 0.05 | 0.74 | 0.74 | 99 | 1018.7 |
| 20260831183659 | 18 | 41 | 1.6 | 6.4 | 0.05 | 0.71 | 0.71 | 99 | 1018.7 |
| 20260831183159 | 18 | 113 | 0.0 | 3.2 | 0.05 | 0.71 | 0.71 | 99 | 1018.8 |
| 20260831182658 | 18 | 302 | 1.6 | 6.4 | 0.00 | 0.71 | 0.71 | 99 | 1018.6 |
| 20260831182154 | 18 | 44 | 0.0 | 3.2 | 0.00 | 0.71 | 0.71 | 99 | 1018.7 |
| 20260831181649 | 18 | 257 | 3.2 | 3.2 | 0.05 | 0.71 | 0.71 | 99 | 1018.7 |
| 20260831181149 | 18 | 45 | 0.0 | 4.8 | 0.05 | 0.71 | 0.71 | 99 | 1019.0 |
| 20260831180644 | 18 | 76 | 0.0 | 3.2 | 0.05 | 0.71 | 0.71 | 99 | 1019.0 |
| 20260831180134 | 18 | 214 | 1.6 | 6.4 | 0.05 | 0.71 | 0.71 | 99 | 1019.2 |
| 20260831175628 | 18 | 181 | 3.2 | 3.2 | 0.05 | 0.69 | 0.69 | 99 | 1019.1 |
| 20260831175125 | 18 | 217 | 0.0 | 1.6 | 0.18 | 0.69 | 0.69 | 99 | 1019.1 |
| 20260831174620 | 18 | 280 | 3.2 | 6.4 | 0.05 | 0.66 | 0.66 | 99 | 1019.0 |
| 20260831174119 | 18 | 13 | 0.0 | 3.2 | 0.05 | 0.66 | 0.66 | 99 | 1019.2 |
| 20260831173618 | 18 | 247 | 4.8 | 4.8 | 0.05 | 0.66 | 0.66 | 99 | 1019.3 |
| 20260831173115 | 18 | 101 | 0.0 | 3.2 | 0.23 | 0.66 | 0.66 | 99 | 1019.5 |
| 20260831172614 | 18 | 60 | 0.0 | 3.2 | 0.23 | 0.64 | 0.64 | 99 | 1019.2 |
| 20260831172109 | 18 | 237 | 0.0 | 3.2 | 0.23 | 0.61 | 0.61 | 99 | 1019.5 |
| 20260831171604 | 18 | 259 | 1.6 | 3.2 | 0.13 | 0.61 | 0.61 | 99 | 1019.5 |
| 20260831171102 | 18 | 89 | 0.0 | 1.6 | 0.13 | 0.58 | 0.58 | 99 | 1019.5 |
| 20260831170557 | 18 | 76 | 0.0 | 3.2 | 0.18 | 0.56 | 0.56 | 99 | 1019.5 |
| 20260831170055 | 18 | 195 | 0.0 | 4.8 | 0.30 | 0.56 | 0.56 | 99 | 1019.6 |
| 20260831165554 | 18 | 203 | 1.6 | 4.8 | 0.23 | 0.53 | 0.53 | 99 | 1019.6 |
| 20260831165051 | 18 | 214 | 1.6 | 6.4 | 0.13 | 0.51 | 0.51 | 99 | 1019.8 |
| 20260831164547 | 18 | 215 | 3.2 | 4.8 | 0.13 | 0.51 | 0.51 | 99 | 1019.6 |
| 20260831164042 | 18 | 112 | 3.2 | 3.2 | 0.13 | 0.48 | 0.48 | 99 | 1019.6 |
| 20260831163537 | 18 | 66 | 0.0 | 3.2 | 0.13 | 0.48 | 0.48 | 99 | 1019.9 |
| 20260831163033 | 18 | 38 | 0.0 | 1.6 | 0.23 | 0.46 | 0.46 | 99 | 1019.9 |
| 20260831162531 | 18 | 129 | 0.0 | 0.0 | 0.36 | 0.43 | 0.43 | 99 | 1019.7 |
| 20260831162030 | 18 | 112 | 1.6 | 3.2 | 0.66 | 0.43 | 0.43 | 99 | 1019.9 |
| 20260831161526 | 18 | 55 | 1.6 | 3.2 | 0.61 | 0.38 | 0.38 | 99 | 1019.9 |
| 20260831161022 | 18 | 66 | 0.0 | 1.6 | 1.02 | 0.30 | 0.30 | 99 | 1019.9 |
| 20260831160521 | 18 | 315 | 3.2 | 3.2 | 1.63 | 0.28 | 0.28 | 98 | 1019.8 |
| 20260831160017 | 19 | 345 | 0.0 | 1.6 | 0.66 | 0.10 | 0.10 | 96 | 1019.8 |
| 20260831155511 | 19 | 336 | 0.0 | 3.2 | 0.00 | 0.00 | 0.00 | 91 | 1019.9 |
| 20260831155007 | 20 | 325 | 1.6 | 3.2 | 0.00 | 0.00 | 0.00 | 91 | 1019.8 |
| 20260831154503 | 20 | 338 | 1.6 | 3.2 | 0.00 | 0.00 | 0.00 | 89 | 1019.6 |
| 20260831154001 | 20 | 218 | 0.0 | 3.2 | 0.00 | 0.00 | 0.00 | 88 | 1019.5 |
| 20260831153457 | 20 | 269 | 0.0 | 3.2 | 0.00 | 0.00 | 0.00 | 88 | 1019.5 |
| 20260831152954 | 20 | 309 | 0.0 | 3.2 | 0.00 | 0.00 | 0.00 | 88 | 1019.6 |
| 20260831152449 | 20 | 165 | 0.0 | 3.2 | 0.00 | 0.00 | 0.00 | 87 | 1019.7 |
| 20260831151944 | 20 | 310 | 0.0 | 3.2 | 0.00 | 0.00 | 0.00 | 89 | 1019.3 |
| 20260831151443 | 20 | 241 | 3.2 | 3.2 | 0.00 | 0.00 | 0.00 | 88 | 1019.3 |
| 20260831150938 | 20 | 142 | 0.0 | 3.2 | 0.00 | 0.00 | 0.00 | 88 | 1019.7 |
| 20260831150434 | 20 | 293 | 3.2 | 6.4 | 0.00 | 0.00 | 0.00 | 88 | 1019.8 |
| 20260831145933 | 20 | 116 | 0.0 | 3.2 | 0.00 | 0.00 | 0.00 | 87 | 1019.6 |
| 20260831145429 | 20 | 141 | 0.0 | 3.2 | 0.00 | 0.00 | 0.00 | 88 | 1019.4 |
| 20260831144925 | 20 | 179 | 0.0 | 3.2 | 0.00 | 0.00 | 0.00 | 89 | 1019.3 |
| 20260831144415 | 20 | 286 | 3.2 | 3.2 | 0.00 | 0.00 | 0.00 | 89 | 1019.7 |
| 20260831143916 | 20 | 105 | 0.0 | 3.2 | 0.00 | 0.00 | 0.00 | 88 | 1019.6 |
| 20260831143410 | 20 | 50 | 1.6 | 1.6 | 0.00 | 0.00 | 0.00 | 90 | 1019.6 |
| 20260831142906 | 20 | 81 | 1.6 | 3.2 | 0.00 | 0.00 | 0.00 | 90 | 1019.6 |
| 20260831142402 | 20 | 66 | 0.0 | 1.6 | 0.00 | 0.00 | 0.00 | 90 | 1019.5 |
| 20260831141902 | 19 | 317 | 1.6 | 4.8 | 0.00 | 0.00 | 0.00 | 91 | 1019.5 |
| 20260831141355 | 20 | 228 | 4.8 | 6.4 | 0.00 | 0.00 | 0.00 | 90 | 1019.5 |
| 20260831140851 | 20 | 125 | 3.2 | 4.8 | 0.00 | 0.00 | 0.00 | 90 | 1019.6 |
| 20260831140345 | 19 | 342 | 0.0 | 3.2 | 0.00 | 0.00 | 0.00 | 90 | 1019.6 |
| 20260831135844 | 19 | 254 | 0.0 | 3.2 | 0.00 | 0.00 | 0.00 | 91 | 1019.5 |
| 20260831135339 | 19 | 321 | 0.0 | 3.2 | 0.00 | 0.00 | 0.00 | 92 | 1019.6 |
| 20260831134834 | 18 | 124 | 0.0 | 3.2 | 0.00 | 0.00 | 0.00 | 93 | 1019.7 |
| 20260831134331 | 18 | 191 | 0.0 | 3.2 | 0.00 | 0.00 | 0.00 | 93 | 1019.5 |
| 20260831133830 | 18 | 269 | 0.0 | 3.2 | 0.00 | 0.00 | 0.00 | 93 | 1019.7 |
| 20260831133329 | 18 | 139 | 0.0 | 3.2 | 0.00 | 0.00 | 0.00 | 94 | 1019.7 |
| 20260831132825 | 18 | 76 | 0.0 | 1.6 | 0.00 | 0.00 | 0.00 | 95 | 1019.8 |
| 20260831132320 | 17 | 109 | 3.2 | 3.2 | 0.00 | 0.00 | 0.00 | 96 | 1019.8 |
| 20260831131814 | 17 | 105 | 1.6 | 3.2 | 0.00 | 0.00 | 0.00 | 96 | 1019.9 |
| 20260831131311 | 17 | 87 | 0.0 | 3.2 | 0.00 | 0.00 | 0.00 | 96 | 1020.2 |
| 20260831130805 | 17 | 140 | 0.0 | 1.6 | 0.00 | 0.00 | 0.00 | 96 | 1020.1 |
| 20260831130301 | 17 | 110 | 0.0 | 1.6 | 0.00 | 0.00 | 0.00 | 96 | 1020.1 |
| 20260831125800 | 17 | 89 | 0.0 | 0.0 | 0.00 | 0.00 | 0.00 | 97 | 1020.0 |
| 20260831125256 | 17 | 44 | 0.0 | 1.6 | 0.00 | 0.00 | 0.00 | 98 | 1020.1 |
| 20260831124755 | 17 | 105 | 1.6 | 3.2 | 0.00 | 0.00 | 0.00 | 98 | 1020.0 |
| 20260831124252 | 17 | 106 | 3.2 | 4.8 | 0.00 | 0.00 | 0.00 | 98 | 1020.0 |
| 20260831123752 | 16 | 43 | 1.6 | 3.2 | 0.00 | 0.00 | 0.00 | 99 | 1020.0 |
| 20260831123251 | 16 | 45 | 1.6 | 3.2 | 0.00 | 0.00 | 0.00 | 99 | 1019.8 |
| 20260831122746 | 16 | 20 | 3.2 | 4.8 | 0.00 | 0.00 | 0.00 | 99 | 1020.0 |
| 20260831122242 | 16 | 86 | 3.2 | 4.8 | 0.00 | 0.00 | 0.00 | 99 | 1019.9 |
| 20260831121741 | 15 | 83 | 3.2 | 3.2 | 0.00 | 0.00 | 0.00 | 99 | 1020.1 |
| 20260831121237 | 15 | 71 | 3.2 | 3.2 | 0.00 | 0.00 | 0.00 | 99 | 1020.0 |
| 20260831120732 | 15 | 82 | 0.0 | 3.2 | 0.00 | 0.00 | 0.00 | 99 | 1020.3 |
| 20260831120227 | 15 | 82 | 1.6 | 1.6 | 0.00 | 0.00 | 0.00 | 99 | 1020.4 |
| 20260831115722 | 15 | 32 | 3.2 | 3.2 | 0.00 | 0.00 | 0.00 | 99 | 1020.2 |
| 20260831115219 | 15 | 53 | 3.2 | 3.2 | 0.00 | 0.00 | 0.00 | 99 | 1020.3 |
| 20260831114718 | 15 | 52 | 3.2 | 3.2 | 0.00 | 0.00 | 0.00 | 99 | 1020.4 |
| 20260831114217 | 15 | 53 | 1.6 | 3.2 | 0.00 | 0.00 | 0.00 | 99 | 1020.1 |
| 20260831113713 | 15 | 55 | 3.2 | 3.2 | 0.00 | 0.00 | 0.00 | 99 | 1020.1 |
| 20260831113212 | 15 | 31 | 1.6 | 3.2 | 0.00 | 0.00 | 0.00 | 99 | 1020.2 |
| 20260831112707 | 15 | 41 | 3.2 | 3.2 | 0.00 | 0.00 | 0.00 | 99 | 1019.9 |
| 20260831112202 | 15 | 58 | 0.0 | 1.6 | 0.00 | 0.00 | 0.00 | 99 | 1020.2 |
| 20260831111657 | 15 | 25 | 3.2 | 3.2 | 0.00 | 0.00 | 0.00 | 99 | 1020.0 |
| 20260831111154 | 15 | 89 | 3.2 | 3.2 | 0.00 | 0.00 | 0.00 | 99 | 1020.3 |
| 20260831110649 | 15 | 70 | 1.6 | 3.2 | 0.00 | 0.00 | 0.00 | 99 | 1020.1 |
| 20260831110144 | 15 | 43 | 1.6 | 3.2 | 0.00 | 0.00 | 0.00 | 99 | 1020.0 |
| 20260831105643 | 15 | 45 | 3.2 | 3.2 | 0.00 | 0.00 | 0.00 | 99 | 1019.8 |
| 20260831105138 | 15 | 27 | 3.2 | 3.2 | 0.00 | 0.00 | 0.00 | 99 | 1019.7 |
| 20260831104633 | 15 | 51 | 0.0 | 3.2 | 0.00 | 0.00 | 0.00 | 99 | 1019.5 |
| 20260831104130 | 15 | 60 | 3.2 | 3.2 | 0.00 | 0.00 | 0.00 | 99 | 1019.4 |
| 20260831103625 | 15 | 78 | 1.6 | 3.2 | 0.00 | 0.00 | 0.00 | 99 | 1019.6 |
| 20260831103120 | 15 | 45 | 1.6 | 3.2 | 0.00 | 0.00 | 0.00 | 99 | 1019.4 |
| 20260831102615 | 15 | 48 | 1.6 | 3.2 | 0.00 | 0.00 | 0.00 | 99 | 1019.2 |
| 20260831102110 | 15 | 19 | 0.0 | 1.6 | 0.00 | 0.00 | 0.00 | 99 | 1019.4 |
| 20260831101609 | 15 | 34 | 1.6 | 3.2 | 0.00 | 0.00 | 0.00 | 99 | 1019.5 |
| 20260831101105 | 15 | 38 | 3.2 | 3.2 | 0.00 | 0.00 | 0.00 | 99 | 1019.3 |
| 20260831100601 | 15 | 65 | 1.6 | 3.2 | 0.00 | 0.00 | 0.00 | 99 | 1019.5 |
| 20260831100052 | 15 | 15 | 1.6 | 3.2 | 0.00 | 0.00 | 0.00 | 99 | 1019.6 |
| 20260831095549 | 15 | 78 | 3.2 | 4.8 | 0.00 | 0.00 | 0.00 | 99 | 1019.6 |
| 20260831095044 | 15 | 29 | 3.2 | 4.8 | 0.00 | 0.00 | 0.00 | 99 | 1019.6 |
| 20260831094540 | 15 | 66 | 3.2 | 3.2 | 0.00 | 0.00 | 0.00 | 99 | 1019.3 |
| 20260831094036 | 15 | 59 | 0.0 | 3.2 | 0.00 | 0.00 | 0.00 | 99 | 1019.4 |
| 20260831093531 | 15 | 52 | 3.2 | 3.2 | 0.00 | 0.00 | 0.00 | 99 | 1019.4 |
| 20260831093027 | 15 | 12 | 0.0 | 3.2 | 0.00 | 0.00 | 0.00 | 99 | 1019.7 |
| 20260831092522 | 15 | 322 | 0.0 | 1.6 | 0.00 | 0.00 | 0.00 | 99 | 1019.5 |
| 20260831092018 | 15 | 87 | 1.6 | 3.2 | 0.00 | 0.00 | 0.00 | 99 | 1019.8 |
| 20260831091513 | 15 | 84 | 3.2 | 3.2 | 0.00 | 0.00 | 0.00 | 99 | 1019.7 |
| 20260831091009 | 15 | 51 | 1.6 | 3.2 | 0.00 | 0.00 | 0.00 | 99 | 1019.7 |
| 20260831090504 | 15 | 101 | 1.6 | 3.2 | 0.00 | 0.00 | 0.00 | 99 | 1019.5 |
| 20260831090000 | 15 | 37 | 3.2 | 3.2 | 0.00 | 0.00 | 0.00 | 99 | 1019.5 |
| 20260831085455 | 15 | 42 | 3.2 | 3.2 | 0.00 | 0.00 | 0.00 | 99 | 1019.7 |
| 20260831084954 | 14 | 63 | 1.6 | 3.2 | 0.00 | 0.00 | 0.00 | 99 | 1019.5 |
| 20260831084450 | 14 | 42 | 3.2 | 3.2 | 0.00 | 0.00 | 0.00 | 99 | 1019.3 |
| 20260831083947 | 15 | 25 | 3.2 | 3.2 | 0.00 | 0.00 | 0.00 | 99 | 1019.1 |
| 20260831083442 | 14 | 35 | 3.2 | 4.8 | 0.00 | 0.00 | 0.00 | 99 | 1019.1 |
| 20260831082941 | 14 | 27 | 3.2 | 3.2 | 0.00 | 0.00 | 0.00 | 99 | 1019.5 |
| 20260831082436 | 15 | 37 | 3.2 | 3.2 | 0.00 | 0.00 | 0.00 | 99 | 1019.6 |
| 20260831081931 | 14 | 89 | 3.2 | 3.2 | 0.00 | 0.00 | 0.00 | 99 | 1019.5 |
| 20260831081427 | 15 | 68 | 0.0 | 3.2 | 0.00 | 0.00 | 0.00 | 99 | 1019.6 |
| 20260831080923 | 15 | 100 | 3.2 | 3.2 | 0.00 | 0.00 | 0.00 | 99 | 1019.3 |
| 20260831080422 | 15 | 48 | 1.6 | 3.2 | 0.00 | 0.00 | 0.00 | 99 | 1019.1 |
| 20260831075918 | 15 | 22 | 0.0 | 1.6 | 0.00 | 0.00 | 0.00 | 99 | 1019.2 |
| 20260831075414 | 15 | 83 | 3.2 | 3.2 | 0.00 | 0.00 | 0.00 | 99 | 1019.2 |
| 20260831074909 | 15 | 89 | 1.6 | 3.2 | 0.00 | 0.00 | 0.00 | 99 | 1019.4 |
| 20260831074408 | 15 | 75 | 3.2 | 3.2 | 0.00 | 0.00 | 0.00 | 99 | 1019.4 |
| 20260831073903 | 15 | 21 | 1.6 | 3.2 | 0.00 | 0.00 | 0.00 | 99 | 1019.4 |
| 20260831073402 | 15 | 50 | 0.0 | 1.6 | 0.00 | 0.00 | 0.00 | 99 | 1019.4 |
| 20260831072857 | 15 | 53 | 0.0 | 1.6 | 0.00 | 0.00 | 0.00 | 99 | 1019.2 |
| 20260831072353 | 16 | 11 | 1.6 | 3.2 | 0.00 | 0.00 | 0.00 | 99 | 1019.2 |
| 20260831071849 | 16 | 37 | 1.6 | 3.2 | 0.00 | 0.00 | 0.00 | 99 | 1019.5 |
| 20260831071348 | 16 | 43 | 3.2 | 3.2 | 0.00 | 0.00 | 0.00 | 99 | 1019.4 |
| 20260831070843 | 16 | 39 | 1.6 | 3.2 | 0.00 | 0.00 | 0.00 | 99 | 1019.4 |
| 20260831070342 | 16 | 28 | 3.2 | 3.2 | 0.00 | 0.00 | 0.00 | 99 | 1019.4 |
| 20260831065841 | 16 | 67 | 3.2 | 4.8 | 0.00 | 0.00 | 0.00 | 99 | 1019.4 |
| 20260831065339 | 16 | 21 | 1.6 | 1.6 | 0.00 | 0.00 | 0.00 | 99 | 1019.4 |
| 20260831064834 | 16 | 73 | 1.6 | 3.2 | 0.00 | 0.00 | 0.00 | 99 | 1019.3 |
| 20260831064330 | 16 | 95 | 1.6 | 1.6 | 0.00 | 0.00 | 0.00 | 99 | 1019.3 |
| 20260831063826 | 16 | 310 | 0.0 | 1.6 | 0.00 | 0.00 | 0.00 | 99 | 1019.3 |
| 20260831063326 | 16 | 50 | 1.6 | 1.6 | 0.00 | 0.00 | 0.00 | 99 | 1019.0 |
| 20260831062826 | 16 | 58 | 0.0 | 3.2 | 0.00 | 0.00 | 0.00 | 99 | 1019.4 |
| 20260831062322 | 17 | 58 | 1.6 | 3.2 | 0.00 | 0.00 | 0.00 | 99 | 1019.5 |
| 20260831061821 | 17 | 64 | 1.6 | 1.6 | 0.00 | 0.00 | 0.00 | 99 | 1019.3 |
| 20260831061320 | 17 | 89 | 0.0 | 1.6 | 0.00 | 0.00 | 0.00 | 99 | 1019.6 |
| 20260831060816 | 17 | 66 | 0.0 | 0.0 | 0.00 | 0.00 | 0.00 | 99 | 1019.6 |
| 20260831060310 | 17 | 50 | 0.0 | 1.6 | 0.00 | 0.00 | 0.00 | 98 | 1019.8 |
| 20260831055809 | 17 | 43 | 0.0 | 3.2 | 0.00 | 0.00 | 0.00 | 98 | 1019.7 |
| 20260831055306 | 17 | 94 | 3.2 | 3.2 | 0.00 | 0.00 | 0.00 | 98 | 1019.7 |
| 20260831054800 | 17 | 89 | 0.0 | 0.0 | 0.00 | 0.00 | 0.00 | 98 | 1019.7 |
| 20260831054255 | 17 | 37 | 0.0 | 0.0 | 0.00 | 0.00 | 0.00 | 98 | 1019.6 |
| 20260831053754 | 17 | 85 | 0.0 | 1.6 | 0.00 | 0.00 | 0.00 | 98 | 1019.8 |
| 20260831053253 | 17 | 89 | 1.6 | 3.2 | 0.00 | 0.00 | 0.00 | 98 | 1019.9 |
| 20260831052747 | 17 | 22 | 0.0 | 0.0 | 0.00 | 0.00 | 0.00 | 98 | 1019.8 |
| 20260831052247 | 17 | 44 | 1.6 | 3.2 | 0.00 | 0.00 | 0.00 | 97 | 1019.9 |
| 20260831051745 | 17 | 82 | 1.6 | 3.2 | 0.00 | 0.00 | 0.00 | 97 | 1019.5 |
| 20260831051244 | 17 | 50 | 0.0 | 1.6 | 0.00 | 0.00 | 0.00 | 97 | 1020.0 |
| 20260831050739 | 17 | 31 | 0.0 | 1.6 | 0.00 | 0.00 | 0.00 | 97 | 1019.8 |
| 20260831050237 | 17 | 89 | 1.6 | 1.6 | 0.00 | 0.00 | 0.00 | 97 | 1019.8 |
| 20260831045732 | 17 | 55 | 0.0 | 1.6 | 0.00 | 0.00 | 0.00 | 97 | 1020.0 |
| 20260831045227 | 17 | 48 | 0.0 | 1.6 | 0.00 | 0.00 | 0.00 | 97 | 1019.7 |
| 20260831044721 | 17 | 103 | 0.0 | 0.0 | 0.00 | 0.00 | 0.00 | 97 | 1019.9 |
| 20260831044211 | 17 | 81 | 0.0 | 1.6 | 0.00 | 0.00 | 0.00 | 97 | 1019.9 |
| 20260831043707 | 17 | 89 | 0.0 | 0.0 | 0.00 | 0.00 | 0.00 | 97 | 1019.9 |
| 20260831043202 | 17 | 47 | 1.6 | 1.6 | 0.00 | 0.00 | 0.00 | 97 | 1020.0 |
| 20260831042701 | 17 | 297 | 0.0 | 1.6 | 0.00 | 0.00 | 0.00 | 97 | 1019.8 |
| 20260831042156 | 17 | 77 | 0.0 | 1.6 | 0.00 | 0.00 | 0.00 | 96 | 1020.0 |
| 20260831041650 | 17 | 88 | 1.6 | 1.6 | 0.00 | 0.00 | 0.00 | 96 | 1019.8 |
| 20260831041144 | 17 | 76 | 0.0 | 3.2 | 0.00 | 0.00 | 0.00 | 96 | 1019.7 |
| 20260831040640 | 17 | 22 | 0.0 | 0.0 | 0.00 | 0.00 | 0.00 | 96 | 1019.8 |
| 20260831040138 | 17 | 16 | 1.6 | 1.6 | 0.00 | 0.00 | 0.00 | 96 | 1019.6 |
| 20260831035638 | 17 | 43 | 1.6 | 1.6 | 0.00 | 0.00 | 0.00 | 96 | 1019.8 |
| 20260831035137 | 17 | 60 | 0.0 | 1.6 | 0.00 | 0.00 | 0.00 | 96 | 1019.7 |
| 20260831034636 | 18 | 89 | 1.6 | 3.2 | 0.00 | 0.00 | 0.00 | 96 | 1019.7 |
| 20260831034133 | 18 | 37 | 0.0 | 0.0 | 0.00 | 0.00 | 0.00 | 95 | 1020.1 |
| 20260831033628 | 18 | 47 | 0.0 | 3.2 | 0.00 | 0.00 | 0.00 | 96 | 1019.8 |
| 20260831033123 | 18 | 37 | 0.0 | 1.6 | 0.00 | 0.00 | 0.00 | 96 | 1019.6 |
| 20260831032622 | 18 | 77 | 1.6 | 1.6 | 0.00 | 0.00 | 0.00 | 95 | 1019.7 |
| 20260831032118 | 18 | 89 | 0.0 | 0.0 | 0.00 | 0.00 | 0.00 | 95 | 1019.7 |
| 20260831031618 | 18 | 89 | 1.6 | 1.6 | 0.00 | 0.00 | 0.00 | 95 | 1019.9 |
| 20260831031117 | 18 | 322 | 0.0 | 0.0 | 0.00 | 0.00 | 0.00 | 95 | 1019.9 |
| 20260831030616 | 18 | 37 | 0.0 | 0.0 | 0.00 | 0.00 | 0.00 | 95 | 1019.7 |
| 20260831030116 | 18 | 17 | 1.6 | 1.6 | 0.00 | 0.00 | 0.00 | 94 | 1019.7 |